This is the latest recevied weather packets stored in our database for station/object N8HKU-5. If no packets are shown the sender has not sent any weather packets the latest 10 day(s).
| Time | Temp. | Humidity | Pressure | Rain* | Wind** | Luminosity | Snow |
|---|---|---|---|---|---|---|---|
| 1778040153 | 8.33° C | 69% | 1006.6 hPa | 0 mm | - | - | - |
| 1778039554 | 7.78° C | 76% | 1006.4 hPa | 0 mm | - | - | - |
| 1778038953 | 7.78° C | 80% | 1006.2 hPa | 0 mm | - | - | - |
| 1778038354 | 7.78° C | 77% | 1006.1 hPa | 0 mm | - | - | - |
| 1778037754 | 7.78° C | 79% | 1006.2 hPa | 0 mm | - | - | - |
| 1778037154 | 7.78° C | 79% | 1006.5 hPa | 0 mm | - | - | - |
| 1778036553 | 7.78° C | 76% | 1006.5 hPa | 0 mm | - | - | - |
| 1778035954 | 7.78° C | 77% | 1006.6 hPa | 0 mm | - | - | - |
| 1778035354 | 8.33° C | 78% | 1006.6 hPa | 0 mm | - | - | - |
| 1778034753 | 8.33° C | 77% | 1006.7 hPa | 0 mm | - | - | - |
| 1778034154 | 8.33° C | 75% | 1006.4 hPa | 0 mm | - | - | - |
| 1778033554 | 8.33° C | 74% | 1006.4 hPa | 0 mm | - | - | - |
| 1778032954 | 8.89° C | 71% | 1006.4 hPa | 0 mm | - | - | - |
| 1778032354 | 8.89° C | 68% | 1006.3 hPa | 0 mm | - | - | - |
| 1778031754 | 9.44° C | 72% | 1006.1 hPa | 0 mm | - | - | - |
| 1778031154 | 9.44° C | 66% | 1006 hPa | 0 mm | - | - | - |
| 1778030554 | 10° C | 60% | 1005.9 hPa | 0 mm | - | - | - |
| 1778029954 | 10.56° C | 63% | 1005.8 hPa | 0 mm | - | - | - |
| 1778029354 | 10.56° C | 60% | 1005.9 hPa | 0 mm | - | - | - |
| 1778028754 | 10.56° C | 59% | 1005.9 hPa | 0 mm | - | - | - |
| 1778028157 | 10.56° C | 60% | 1005.9 hPa | 0 mm | - | - | - |
| 1778027554 | 11.11° C | 60% | 1006 hPa | 0 mm | - | - | - |
| 1778026954 | 11.11° C | 57% | 1005.9 hPa | 0 mm | - | - | - |
| 1778026355 | 11.11° C | 54% | 1005.9 hPa | 0 mm | - | - | - |
| 1778025754 | 11.11° C | 54% | 1005.8 hPa | 0 mm | - | - | - |
* Rain latest hour (hover to see other rain measurements)
** Current wind speed in m/s (hover to see current wind gust speed)